{"data":{"norad_id":59672,"intl_designator":"2024-084U","name":"STARLINK-31842","alt_names":[],"object_type":"PAYLOAD","status":"ACTIVE","operator":null,"country":"US","launch_date":"2024-05-06","launch_site_code":"AFETR","launch_vehicle":null,"mission":null,"orbit_class":"UNKNOWN","rcs_meters":null,"size_class":null,"mass_kg":null,"dimensions":null,"purposes":["comms"],"wikipedia_slug":null,"has_3d_model":false,"image_url":null,"decayed_at":null,"tle_current":{"epoch":"2026-05-25T04:50:47.819904Z","epoch_age_seconds":60837,"freshness":"FRESH","line1":"1 59672U 24084U   26145.20194236  .00001187  00000+0  52663-4 0  9994","line2":"2 59672  43.0003 326.3252 0001207 268.7944  91.2770 15.27576462116115","mean_motion":15.27576462,"eccentricity":0.0001207,"inclination_deg":43.0003,"raan_deg":326.3252,"arg_perigee_deg":268.7944,"mean_anomaly_deg":91.277,"bstar":5.2663e-5,"rev_number":11611,"period_min":94.266967043644,"perigee_km":482.23154366439,"apogee_km":483.88783654539,"semimajor_km":6861.1966901049,"source":"CELESTRAK","updated_at":"2026-05-25T13:38:19.021572Z"}}}